EW1552 Weather Reports


Display with metric or nautical units.
time (UTC)temp
F
wind
direction
speed
MPH
gust
MPH
rain 1hr
in
rain 24hr
in
rain mn
in
humidity
%
barometer
mb
20260508042444 65 290 6.0 13.0 0.00 0.00 0.00 38 1014.7
20260508041501 65 304 6.0 11.0 0.00 0.00 0.00 38 1014.7
20260508040517 66 300 7.0 14.0 0.00 0.00 0.00 36 1014.5
20260508035455 66 281 8.0 14.0 0.00 0.00 0.00 35 1014.4
20260508034444 66 303 8.0 13.0 0.00 0.00 0.00 34 1014.3
20260508033413 67 292 5.0 11.0 0.00 0.00 0.00 33 1014.1
20260508032407 67 265 4.0 11.0 0.00 0.00 0.00 31 1014.0
20260508031418 67 263 8.0 16.0 0.00 0.00 0.00 29 1013.9
20260508030402 68 275 7.0 16.0 0.00 0.00 0.00 27 1013.9
20260508025403 68 271 7.0 18.0 0.00 0.00 0.00 26 1014.0
20260508024405 69 281 10.0 18.0 0.00 0.00 0.00 24 1013.9
20260508023331 70 302 8.0 14.0 0.00 0.00 0.00 23 1013.9
20260508022354 71 243 7.0 14.0 0.00 0.00 0.00 21 1013.8
20260508021323 71 256 7.0 16.0 0.00 0.00 0.00 20 1013.8
20260508015157 72 285 10.0 16.0 0.00 0.00 0.00 19 1013.8
20260508014130 72 295 11.0 17.0 0.00 0.00 0.00 20 1013.8
20260508013125 72 316 13.0 20.0 0.00 0.00 0.00 23 1013.7
20260508012136 72 315 13.0 27.0 0.00 0.00 0.00 20 1013.8
20260508011145 72 294 15.0 27.0 0.00 0.00 0.00 19 1013.9
20260508010115 72 286 14.0 24.0 0.00 0.00 0.00 19 1013.9
20260508005053 72 283 13.0 22.0 0.00 0.00 0.00 21 1013.8
20260508004058 72 286 12.0 25.0 0.00 0.00 0.00 24 1014.0
20260508003057 72 259 15.0 25.0 0.00 0.00 0.00 21 1014.0
20260508002032 72 307 14.0 24.0 0.00 0.00 0.00 20 1013.9
20260508001023 72 267 14.0 23.0 0.00 0.00 0.00 23 1013.9
20260507235955 72 285 14.0 23.0 0.00 0.00 0.00 22 1014.1
20260507234924 73 281 14.0 24.0 0.00 0.00 0.00 18 1013.9
20260507233850 73 277 15.0 26.0 0.00 0.00 0.00 17 1014.0
20260507232841 72 267 16.0 29.0 0.00 0.00 0.00 20 1014.1
20260507231856 72 292 17.0 29.0 0.00 0.00 0.00 19 1014.4
20260507230823 72 288 17.0 28.0 0.00 0.00 0.00 20 1014.4
20260507223608 71 263 14.0 25.0 0.00 0.00 0.00 28 1014.4
20260507221426 72 264 13.0 23.0 0.00 0.00 0.00 28 1014.8
20260507220417 71 298 15.0 23.0 0.00 0.00 0.00 30 1014.8
20260507215359 71 285 15.0 26.0 0.00 0.00 0.00 30 1015.0
20260507214341 71 242 15.0 26.0 0.00 0.00 0.00 28 1015.2
20260507212200 71 283 15.0 28.0 0.00 0.00 0.00 31 1015.4
20260507210000 70 258 12.0 23.0 0.00 0.00 0.00 33 1015.6
20260507205016 70 262 12.0 22.0 0.00 0.00 0.00 31 1015.7
20260507204015 69 251 13.0 22.0 0.00 0.00 0.00 33 1015.6
20260507203022 69 269 13.0 29.0 0.00 0.00 0.00 38 1015.8
20260507202034 68 259 16.0 29.0 0.00 0.00 0.00 37 1015.7
20260507201008 67 292 16.0 30.0 0.00 0.00 0.00 39 1016.0
20260507195944 67 259 17.0 30.0 0.00 0.00 0.00 39 1016.0
20260507194937 66 276 20.0 30.0 0.00 0.00 0.00 37 1016.1
20260507193909 66 275 18.0 28.0 0.00 0.00 0.00 40 1016.3
20260507192911 66 286 15.0 28.0 0.00 0.00 0.00 42 1016.4
20260507191928 65 287 14.0 22.0 0.00 0.00 0.00 43 1016.6
20260507190930 65 285 15.0 24.0 0.00 0.00 0.00 45 1016.7
20260507185936 64 254 15.0 27.0 0.00 0.00 0.00 44 1016.8
20260507184958 64 296 14.0 27.0 0.00 0.00 0.00 45 1016.9
20260507182736 63 296 12.0 24.0 0.00 0.00 0.00 47 1017.1
20260507181740 63 281 12.0 24.0 0.00 0.00 0.00 49 1017.1
20260507180730 62 272 12.0 21.0 0.00 0.00 0.00 53 1017.3
20260507173532 60 304 14.0 23.0 0.00 0.00 0.00 57 1017.6
20260507172527 60 271 13.0 22.0 0.00 0.00 0.00 58 1017.7
20260507171521 59 284 13.0 24.0 0.00 0.00 0.00 60 1017.9
20260507165324 58 254 15.0 27.0 0.00 0.00 0.00 61 1017.7
20260507163134 58 291 17.0 30.0 0.00 0.00 0.00 63 1017.9
20260507162121 57 294 18.0 29.0 0.00 0.00 0.00 63 1017.8
20260507161127 57 268 18.0 29.0 0.00 0.00 0.00 65 1017.8
20260507160058 57 234 18.0 29.0 0.00 0.00 0.00 66 1018.1
20260507155058 56 298 17.0 28.0 0.00 0.00 0.00 68 1018.1
20260507154123 57 277 15.0 25.0 0.00 0.00 0.00 67 1018.2
20260507153105 56 284 14.0 25.0 0.00 0.00 0.00 67 1018.4
20260507152101 56 261 14.0 25.0 0.00 0.00 0.00 68 1018.2
20260507150014 56 285 15.0 26.0 0.00 0.00 0.00 68 1018.5
20260507145035 56 271 13.0 23.0 0.00 0.00 0.00 70 1018.6
20260507142846 55 288 13.0 22.0 0.00 0.00 0.00 72 1018.5
20260507141827 55 265 11.0 27.0 0.00 0.00 0.00 72 1018.2
20260507140757 55 241 14.0 27.0 0.00 0.00 0.00 73 1018.1
20260507135726 55 266 15.0 26.0 0.00 0.00 0.00 73 1018.0
20260507133608 55 252 15.0 25.0 0.00 0.00 0.00 73 1017.9
20260507131517 55 260 12.0 23.0 0.00 0.00 0.00 74 1017.9
20260507130538 55 257 11.0 21.0 0.00 0.00 0.00 74 1017.9
20260507125544 55 231 12.0 21.0 0.00 0.00 0.00 73 1017.9
20260507123418 56 248 7.0 14.0 0.00 0.00 0.00 73 1017.9
20260507122435 56 242 5.0 10.0 0.00 0.00 0.00 73 1017.8
20260507120248 56 286 4.0 12.0 0.00 0.00 0.00 72 1017.8
20260507115224 56 290 3.0 12.0 0.00 0.00 0.00 72 1017.8
20260507114240 56 228 4.0 8.0 0.00 0.00 0.00 73 1017.7
20260507113214 56 323 6.0 12.0 0.00 0.00 0.00 73 1017.7
20260507112234 56 275 5.0 16.0 0.00 0.00 0.00 73 1017.7
20260507111226 57 303 10.0 21.0 0.00 0.00 0.00 73 1017.6
20260507110226 57 267 10.0 21.0 0.00 0.00 0.00 73 1017.5
20260507105158 57 280 10.0 20.0 0.00 0.00 0.00 73 1017.4
20260507104141 57 273 12.0 20.0 0.00 0.00 0.00 72 1017.1
20260507103119 57 265 10.0 19.0 0.00 0.00 0.00 73 1017.0
20260507100949 58 303 11.0 19.0 0.00 0.00 0.00 73 1016.8
20260507095944 58 250 12.0 20.0 0.00 0.00 0.00 73 1016.9
20260507094917 58 275 12.0 20.0 0.00 0.00 0.00 72 1016.9
20260507093937 58 285 11.0 19.0 0.00 0.00 0.00 72 1017.0
20260507092950 59 273 11.0 19.0 0.00 0.00 0.00 72 1017.0
20260507091942 59 278 11.0 27.0 0.00 0.00 0.00 73 1017.1
20260507083549 59 289 10.0 28.0 0.00 0.00 0.00 73 1017.4
20260507082549 59 287 13.0 28.0 0.00 0.00 0.00 72 1017.4
20260507081549 60 287 14.0 23.0 0.00 0.00 0.00 71 1017.3
20260507080601 60 331 13.0 26.0 0.00 0.00 0.00 71 1017.1
20260507075602 60 292 13.0 26.0 0.00 0.00 0.00 71 1017.1
20260507073449 60 318 13.0 23.0 0.00 0.00 0.00 70 1017.0
20260507072424 60 307 13.0 23.0 0.00 0.00 0.00 70 1016.9
20260507071442 61 281 14.0 23.0 0.00 0.00 0.00 70 1016.9
20260507070449 61 298 15.0 28.0 0.00 0.00 0.00 69 1017.1
20260507065505 61 313 13.0 28.0 0.00 0.00 0.00 69 1017.1
20260507064522 62 289 11.0 24.0 0.00 0.00 0.00 68 1017.2
20260507063520 62 291 10.0 24.0 0.00 0.00 0.00 68 1017.3
20260507062536 62 259 11.0 25.0 0.00 0.00 0.00 67 1017.3
20260507061536 63 298 11.0 25.0 0.00 0.00 0.00 67 1017.2
20260507060558 63 298 12.0 19.0 0.00 0.00 0.00 67 1017.1
20260507055531 63 317 12.0 25.0 0.00 0.00 0.00 67 1017.0
20260507054524 63 289 13.0 25.0 0.00 0.00 0.00 67 1017.2
20260507053506 63 317 13.0 23.0 0.00 0.00 0.00 67 1017.1
20260507052438 63 312 13.0 26.0 0.00 0.00 0.00 67 1017.1
20260507050316 63 342 11.0 24.0 0.00 0.00 0.00 68 1017.2
20260507045309 63 286 12.0 24.0 0.00 0.00 0.00 68 1017.3
20260507044304 63 325 11.0 25.0 0.00 0.00 0.00 68 1017.1